Location: Powder Track
(41.8531°N, 72.3584°W)
Time: 18:41:03
(UTC+00:00)

Transit 4A - Pass Details

Date: 12 August 2021
Orbit: 871 x 974 km, 66.8° (Epoch: 19 September)

Event Time Altitude Azimuth Distance (km) Brightness Sun altitude
Rises 01:48:06 0° 199° (SSW) 3,487 10.7 -18.8°
Reaches altitude 10° 01:50:36 10° 197° (SSW) 2,539 9.9 -19.2°
Maximum altitude 01:56:24 66° 116° (ESE) 956 7.7 -19.9°
Drops below altitude 10° 02:02:09 10° 36° (NE) 2,525 10.3 -20.7°
Sets 02:04:39 0° 33° (NNE) 3,466 11.0 -21.0°
